Starlink 30370

operational
NORAD ID: 57751 Int'l Des: 2023-131 Owner: SPXS Country: US Constellation: starlink
LEOCIRCULAR

About Starlink 30370

Description loading...

Live Position

Loading 3D Globe...

Upcoming Passes

Altitude History

Altitude vs Time

uPlot chart will show altitude changes over time

Two-Line Element Set

1 57751U 23131V 25258.06678440 .00000107 00000-0 22978-4 0 9992
2 57751 43.0048 33.5301 0001285 267.2690 92.8005 15.02537090113651
Epoch: Sep 15, 2025 • Age: 14 hours

Current Status

Altitude 569.7 km
Velocity 7.58 km/s
Sub-Earth Point -38.48°S, 102.45°E
Launch Date Sep 1, 2023
Age 2 years
Type internet

Technical Details

Classification Payload
Mass 730.00 kg
Dry Mass 700.00 kg
Total Mass 730.00 kg
Length 0.30 m
Diameter 4.10 m
Span 29.00 m
Shape Box + pan
Manufacturer SPXS
Bus Type Starlink V2M
Phase Status In Orbit
Owner/State SPXS/US

Large Constellations

Loading constellations...